TimeEDT,TemperatureF,Dew PointF,Humidity,Sea Level PressureIn,VisibilityMPH,Wind Direction,Wind SpeedMPH,Gust SpeedMPH,PrecipitationIn,Events,Conditions,WindDirDegrees,DateUTC
12:53 AM,62.1,57.9,86,30.19,9.0,Calm,Calm,-,N/A,,Unknown,0,2012-09-14 04:53:00
1:53 AM,62.1,59.0,90,30.20,8.0,Calm,Calm,-,N/A,,Partly Cloudy,0,2012-09-14 05:53:00
2:53 AM,64.0,61.0,90,30.19,7.0,Calm,Calm,-,N/A,,Mostly Cloudy,0,2012-09-14 06:53:00
3:53 AM,64.0,61.0,90,30.19,6.0,Calm,Calm,-,N/A,,Overcast,0,2012-09-14 07:53:00
4:53 AM,63.0,61.0,93,30.18,7.0,NE,3.5,-,N/A,,Mostly Cloudy,50,2012-09-14 08:53:00
5:53 AM,61.0,59.0,93,30.18,5.0,North,3.5,-,N/A,,Clear,350,2012-09-14 09:53:00
6:49 AM,60.8,59.0,94,30.21,6.0,North,4.6,-,N/A,,Mostly Cloudy,350,2012-09-14 10:49:00
6:53 AM,60.1,59.0,96,30.20,6.0,North,4.6,-,N/A,,Mostly Cloudy,350,2012-09-14 10:53:00
7:22 AM,60.8,60.8,100,30.21,5.0,North,4.6,-,N/A,,Overcast,360,2012-09-14 11:22:00
7:53 AM,61.0,60.1,97,30.21,3.0,NNW,9.2,-,N/A,,Overcast,340,2012-09-14 11:53:00
8:36 AM,60.8,59.0,94,30.24,5.0,North,11.5,-,N/A,,Overcast,350,2012-09-14 12:36:00
8:53 AM,61.0,59.0,93,30.23,6.0,North,12.7,-,N/A,,Overcast,350,2012-09-14 12:53:00
9:53 AM,62.1,59.0,90,30.25,9.0,North,9.2,-,0.00,Rain,Light Rain,360,2012-09-14 13:53:00
10:40 AM,62.6,59.0,88,30.27,10.0,North,9.2,-,0.00,Rain,Light Rain,10,2012-09-14 14:40:00
10:53 AM,62.1,57.9,86,30.27,10.0,North,10.4,-,0.00,,Overcast,360,2012-09-14 14:53:00
11:53 AM,61.0,57.0,87,30.29,10.0,North,11.5,-,0.01,Rain,Light Rain,360,2012-09-14 15:53:00
12:53 PM,61.0,55.0,81,30.29,10.0,NNE,15.0,23.0,0.00,,Overcast,30,2012-09-14 16:53:00
1:53 PM,66.0,55.0,68,30.28,10.0,NNE,11.5,-,N/A,,Mostly Cloudy,30,2012-09-14 17:53:00
2:53 PM,64.9,53.1,65,30.27,10.0,North,11.5,-,N/A,,Overcast,360,2012-09-14 18:53:00
3:53 PM,68.0,50.0,52,30.27,10.0,NNE,9.2,17.3,N/A,,Scattered Clouds,30,2012-09-14 19:53:00
4:53 PM,69.1,44.1,40,30.26,10.0,NNE,12.7,-,N/A,,Clear,30,2012-09-14 20:53:00
5:53 PM,69.1,44.1,40,30.26,10.0,NE,11.5,-,N/A,,Clear,50,2012-09-14 21:53:00
6:53 PM,66.0,46.0,48,30.28,10.0,NE,5.8,-,N/A,,Clear,40,2012-09-14 22:53:00
7:53 PM,61.0,50.0,67,30.28,10.0,NE,3.5,-,N/A,,Clear,50,2012-09-14 23:53:00
8:53 PM,57.0,48.0,72,30.29,10.0,NE,3.5,-,N/A,,Clear,50,2012-09-15 00:53:00
9:53 PM,55.9,48.9,77,30.28,10.0,Calm,Calm,-,N/A,,Clear,0,2012-09-15 01:53:00
10:53 PM,52.0,48.9,89,30.29,10.0,Calm,Calm,-,N/A,,Clear,0,2012-09-15 02:53:00
11:53 PM,52.0,48.9,89,30.30,10.0,Calm,Calm,-,N/A,,Clear,0,2012-09-15 03:53:00